DAL3841 KCMH-KRDU

Flight info

Callsign DAL3841
Flight time 0h 51m
Altitude 37000
Route POBSE OHIOS BKW FRIKY ALDAN4
Aircraft A319/M-SDE3FGHIRWY/LB1

Departure

Time 2026-05-06 23:38
Airport John Glenn Columbus International Airport (KCMH)

Arrival

Time 2026-05-07 00:30
Airport Raleigh-Durham International Airport (KRDU)
Time Latitude Longitude Altitude Speed Heading
2026-05-06 23:19 39.99966 -82.88725 824 ft 0 kts 135°
2026-05-06 23:31 39.99970 -82.88730 825 ft 2 kts 135°
2026-05-06 23:31 39.99984 -82.88748 825 ft 3 kts 135°
2026-05-06 23:32 39.99998 -82.88766 823 ft 3 kts 135°
2026-05-06 23:32 40.00010 -82.88781 823 ft 1 kts 135°
2026-05-06 23:32 40.00010 -82.88782 823 ft 0 kts 135°
2026-05-06 23:35 40.00010 -82.88780 823 ft 1 kts 134°
2026-05-06 23:35 40.00011 -82.88766 821 ft 4 kts 80°
2026-05-06 23:35 40.00027 -82.88674 825 ft 16 kts 88°
2026-05-06 23:36 40.00017 -82.88462 825 ft 28 kts 94°
2026-05-06 23:36 39.99985 -82.88218 821 ft 27 kts 98°
2026-05-06 23:36 39.99981 -82.87987 825 ft 23 kts 71°
2026-05-06 23:36 40.00076 -82.87940 825 ft 0 kts
2026-05-06 23:37 40.00109 -82.87939 824 ft 13 kts
2026-05-06 23:37 40.00160 -82.87964 824 ft 0 kts 289°
2026-05-06 23:38 40.00166 -82.88051 824 ft 40 kts 275°
2026-05-06 23:38 40.00208 -82.88763 827 ft 115 kts 274°
2026-05-06 23:38 40.00271 -82.90018 1074 ft 146 kts 275°
2026-05-06 23:38 40.00037 -82.91320 1739 ft 153 kts 246°
2026-05-06 23:39 39.99505 -82.92555 2397 ft 159 kts 243°
2026-05-06 23:39 39.98905 -82.93889 2806 ft 182 kts 242°
2026-05-06 23:39 39.98217 -82.95419 3152 ft 210 kts 242°
2026-05-06 23:39 39.97450 -82.97153 3725 ft 231 kts 243°
2026-05-06 23:40 39.96504 -82.98966 4309 ft 258 kts 225°
2026-05-06 23:40 39.94846 -82.99980 5147 ft 274 kts 189°
2026-05-06 23:40 39.92970 -82.99614 6299 ft 274 kts 156°
2026-05-06 23:40 39.91326 -82.98277 7280 ft 283 kts 150°
2026-05-06 23:41 39.89639 -82.96894 8216 ft 289 kts 154°
2026-05-06 23:41 39.87906 -82.95519 9167 ft 294 kts 156°
2026-05-06 23:41 39.86138 -82.94131 10097 ft 299 kts 158°
2026-05-06 23:41 39.84294 -82.92691 10566 ft 321 kts 158°
2026-05-06 23:42 39.82305 -82.91142 10895 ft 345 kts 157°
2026-05-06 23:42 39.80178 -82.89470 11170 ft 369 kts 157°
2026-05-06 23:42 39.77951 -82.87693 11708 ft 381 kts 156°
2026-05-06 23:42 39.75684 -82.85860 12419 ft 387 kts 156°
2026-05-06 23:43 39.73390 -82.83999 13165 ft 391 kts 157°
2026-05-06 23:43 39.71069 -82.82121 13896 ft 395 kts 158°
2026-05-06 23:43 39.68715 -82.80226 14525 ft 401 kts 158°
2026-05-06 23:43 39.66322 -82.78314 15112 ft 407 kts 158°
2026-05-06 23:44 39.63892 -82.76379 15692 ft 413 kts 159°
2026-05-06 23:44 39.61419 -82.74411 16273 ft 419 kts 159°
2026-05-06 23:44 39.58944 -82.72442 16835 ft 426 kts 159°
2026-05-06 23:44 39.56401 -82.70419 17411 ft 432 kts 159°
2026-05-06 23:45 39.53820 -82.68368 17978 ft 438 kts 159°
2026-05-06 23:45 39.51206 -82.66289 18507 ft 444 kts 159°
2026-05-06 23:45 39.48530 -82.64331 19045 ft 438 kts 166°
2026-05-06 23:45 39.45734 -82.62933 19613 ft 425 kts 176°
2026-05-06 23:46 39.42885 -82.62137 20214 ft 411 kts 185°
2026-05-06 23:46 39.40075 -82.61914 20813 ft 399 kts 193°
2026-05-06 23:46 39.37335 -82.62151 21376 ft 393 kts 197°
2026-05-06 23:46 39.34611 -82.62447 21970 ft 393 kts 197°
2026-05-06 23:47 39.31882 -82.62733 22539 ft 394 kts 197°
2026-05-06 23:47 39.29141 -82.63012 23074 ft 395 kts 197°
2026-05-06 23:47 39.26396 -82.63287 23592 ft 396 kts 197°
2026-05-06 23:47 39.23642 -82.63560 24004 ft 398 kts 197°
2026-05-06 23:48 39.20871 -82.63834 24372 ft 401 kts 197°
2026-05-06 23:48 39.18083 -82.64110 24723 ft 403 kts 197°
2026-05-06 23:48 39.15275 -82.64394 25065 ft 406 kts 198°
2026-05-06 23:48 39.12453 -82.64683 25420 ft 408 kts 198°
2026-05-06 23:49 39.09614 -82.64973 25754 ft 411 kts 198°
2026-05-06 23:49 39.06758 -82.65264 26080 ft 413 kts 198°
2026-05-06 23:49 39.03882 -82.65552 26415 ft 416 kts 198°
2026-05-06 23:49 39.00900 -82.65392 26725 ft 446 kts 184°
2026-05-06 23:50 38.97850 -82.64069 27023 ft 477 kts 170°
2026-05-06 23:50 38.92271 -82.58709 27588 ft 537 kts 140°
2026-05-06 23:50 38.89939 -82.54922 27862 ft 543 kts 139°
2026-05-06 23:51 38.87661 -82.51134 28219 ft 544 kts 138°
2026-05-06 23:51 38.85358 -82.47262 28627 ft 544 kts 138°
2026-05-06 23:51 38.83064 -82.43401 29036 ft 544 kts 139°
2026-05-06 23:51 38.80764 -82.39549 29441 ft 544 kts 139°
2026-05-06 23:52 38.78449 -82.35699 29873 ft 543 kts 139°
2026-05-06 23:52 38.76135 -82.31877 30256 ft 543 kts 139°
2026-05-06 23:52 38.73814 -82.28067 30656 ft 541 kts 140°
2026-05-06 23:52 38.71500 -82.24282 31071 ft 539 kts 140°
2026-05-06 23:53 38.69191 -82.20506 31511 ft 537 kts 140°
2026-05-06 23:53 38.66893 -82.16742 31961 ft 535 kts 140°
2026-05-06 23:53 38.64609 -82.12996 32426 ft 533 kts 140°
2026-05-06 23:53 38.62328 -82.09260 32873 ft 531 kts 140°
2026-05-06 23:54 38.60056 -82.05544 33303 ft 530 kts 140°
2026-05-06 23:54 38.57787 -82.01839 33718 ft 529 kts 140°
2026-05-06 23:54 38.55517 -81.98139 34100 ft 528 kts 140°
2026-05-06 23:54 38.53250 -81.94447 34395 ft 529 kts 140°
2026-05-06 23:55 38.50973 -81.90750 34640 ft 531 kts 140°
2026-05-06 23:55 38.48684 -81.87038 34886 ft 533 kts 140°
2026-05-06 23:55 38.46387 -81.83315 35148 ft 534 kts 140°
2026-05-06 23:55 38.44081 -81.79573 35396 ft 536 kts 140°
2026-05-06 23:56 38.41774 -81.75827 35644 ft 538 kts 140°
2026-05-06 23:56 38.39492 -81.72121 35859 ft 539 kts 140°
2026-05-06 23:56 38.37143 -81.68314 36106 ft 541 kts 140°
2026-05-06 23:56 38.34844 -81.64595 36340 ft 541 kts 140°
2026-05-06 23:57 38.32511 -81.60821 36574 ft 543 kts 140°
2026-05-06 23:57 38.30179 -81.57036 36807 ft 543 kts 140°
2026-05-06 23:57 38.27844 -81.53243 36958 ft 546 kts 140°
2026-05-06 23:57 38.25496 -81.49432 36989 ft 549 kts 140°
2026-05-06 23:58 38.20777 -81.41760 36978 ft 551 kts 139°
2026-05-06 23:58 38.16063 -81.34092 36978 ft 551 kts 139°
2026-05-06 23:59 38.11340 -81.26440 36967 ft 550 kts 140°
2026-05-06 23:59 38.07362 -81.20042 36972 ft 560 kts 140°
2026-05-07 00:00 38.02498 -81.12238 36976 ft 566 kts 139°
2026-05-07 00:00 37.97639 -81.04411 36786 ft 558 kts 139°
2026-05-07 00:01 37.95257 -81.00555 36000 ft 555 kts 139°
2026-05-07 00:01 37.92867 -80.96709 34881 ft 554 kts 139°
2026-05-07 00:01 37.90481 -80.92887 33759 ft 552 kts 139°
2026-05-07 00:01 37.88103 -80.89096 32611 ft 547 kts 139°
2026-05-07 00:02 37.85745 -80.85340 31352 ft 547 kts 139°
2026-05-07 00:02 37.83373 -80.81575 30479 ft 545 kts 139°
2026-05-07 00:02 37.81019 -80.77835 29617 ft 540 kts 139°
2026-05-07 00:02 37.78699 -80.74184 29065 ft 526 kts 140°
2026-05-07 00:03 37.76391 -80.70598 28877 ft 524 kts 140°
2026-05-07 00:03 37.74084 -80.67050 28953 ft 521 kts 140°
2026-05-07 00:03 37.69489 -80.60012 28940 ft 519 kts 140°
2026-05-07 00:04 37.67200 -80.56500 28683 ft 515 kts 140°
2026-05-07 00:04 37.64941 -80.53017 27532 ft 514 kts 139°
2026-05-07 00:04 37.62687 -80.49542 26071 ft 512 kts 138°
2026-05-07 00:04 37.60397 -80.46025 24926 ft 523 kts 137°
2026-05-07 00:05 37.58073 -80.42460 24616 ft 529 kts 137°
2026-05-07 00:05 37.55733 -80.38867 24377 ft 532 kts 137°
2026-05-07 00:05 37.53410 -80.35297 24143 ft 534 kts 136°
2026-05-07 00:05 37.51014 -80.31619 23918 ft 541 kts 136°
2026-05-07 00:06 37.48604 -80.27936 23680 ft 547 kts 136°
2026-05-07 00:06 37.46215 -80.24285 23448 ft 548 kts 136°
2026-05-07 00:06 37.43764 -80.20532 23175 ft 547 kts 136°
2026-05-07 00:06 37.41389 -80.16896 22917 ft 545 kts 136°
2026-05-07 00:07 37.38985 -80.13221 22662 ft 543 kts 136°
2026-05-07 00:07 37.36592 -80.09572 22400 ft 540 kts 136°
2026-05-07 00:07 37.34203 -80.05937 22135 ft 538 kts 136°
2026-05-07 00:07 37.31828 -80.02327 21884 ft 535 kts 136°
2026-05-07 00:08 37.29326 -79.98934 21619 ft 526 kts 143°
2026-05-07 00:08 37.26685 -79.95766 21367 ft 523 kts 143°
2026-05-07 00:08 37.24055 -79.92617 21113 ft 521 kts 143°
2026-05-07 00:08 37.21439 -79.89488 20872 ft 520 kts 142°
2026-05-07 00:09 37.18827 -79.86368 20664 ft 517 kts 142°
2026-05-07 00:09 37.16222 -79.83260 20480 ft 516 kts 142°
2026-05-07 00:09 37.13624 -79.80158 20314 ft 515 kts 142°
2026-05-07 00:09 37.11034 -79.77070 20157 ft 514 kts 142°
2026-05-07 00:10 37.08449 -79.73996 20009 ft 512 kts 142°
2026-05-07 00:10 37.05869 -79.70931 19872 ft 511 kts 142°
2026-05-07 00:10 37.03336 -79.67917 19638 ft 492 kts 142°
2026-05-07 00:10 37.00906 -79.65018 19399 ft 473 kts 142°
2026-05-07 00:11 36.98562 -79.62227 19164 ft 458 kts 143°
2026-05-07 00:11 36.96309 -79.59545 18931 ft 438 kts 143°
2026-05-07 00:11 36.94124 -79.56954 18700 ft 427 kts 143°
2026-05-07 00:11 36.91992 -79.54438 18468 ft 416 kts 143°
2026-05-07 00:12 36.89929 -79.52008 18235 ft 402 kts 143°
2026-05-07 00:12 36.87900 -79.49627 17989 ft 399 kts 143°
2026-05-07 00:12 36.85887 -79.47270 17726 ft 395 kts 143°
2026-05-07 00:12 36.83891 -79.44932 17467 ft 392 kts 143°
2026-05-07 00:13 36.81909 -79.42602 17210 ft 390 kts 143°
2026-05-07 00:13 36.79943 -79.40285 16956 ft 388 kts 143°
2026-05-07 00:13 36.77986 -79.37980 16702 ft 386 kts 143°
2026-05-07 00:13 36.76039 -79.35689 16449 ft 383 kts 143°
2026-05-07 00:14 36.74106 -79.33420 16204 ft 381 kts 143°
2026-05-07 00:14 36.72177 -79.31160 15954 ft 379 kts 143°
2026-05-07 00:14 36.70260 -79.28919 15707 ft 377 kts 142°
2026-05-07 00:14 36.68378 -79.26722 15467 ft 375 kts 142°
2026-05-07 00:15 36.66461 -79.24482 15216 ft 372 kts 142°
2026-05-07 00:15 36.64578 -79.22278 14980 ft 370 kts 142°
2026-05-07 00:15 36.62729 -79.20113 14726 ft 369 kts 142°
2026-05-07 00:15 36.60853 -79.17918 14161 ft 372 kts 142°
2026-05-07 00:16 36.58996 -79.15747 13806 ft 361 kts 142°
2026-05-07 00:16 36.57178 -79.13622 13175 ft 355 kts 142°
2026-05-07 00:16 36.55394 -79.11540 12785 ft 350 kts 142°
2026-05-07 00:16 36.53614 -79.09464 12706 ft 352 kts 142°
2026-05-07 00:17 36.51827 -79.07384 12567 ft 351 kts 142°
2026-05-07 00:17 36.50045 -79.05312 12438 ft 350 kts 142°
2026-05-07 00:17 36.48269 -79.03249 12288 ft 349 kts 142°
2026-05-07 00:17 36.46497 -79.01190 12139 ft 348 kts 142°
2026-05-07 00:18 36.44738 -78.99146 11995 ft 342 kts 142°
2026-05-07 00:18 36.43029 -78.97158 11866 ft 330 kts 142°
2026-05-07 00:18 36.41372 -78.95231 11625 ft 324 kts 142°
2026-05-07 00:18 36.39741 -78.93336 11531 ft 319 kts 142°
2026-05-07 00:19 36.38154 -78.91419 11138 ft 319 kts 140°
2026-05-07 00:19 36.36600 -78.89451 10725 ft 320 kts 139°
2026-05-07 00:19 36.35055 -78.87457 10312 ft 321 kts 139°
2026-05-07 00:19 36.33508 -78.85456 9894 ft 321 kts 139°
2026-05-07 00:20 36.31957 -78.83456 9441 ft 320 kts 139°
2026-05-07 00:20 36.30414 -78.81475 9018 ft 318 kts 139°
2026-05-07 00:20 36.28877 -78.79523 8609 ft 315 kts 139°
2026-05-07 00:20 36.27350 -78.77606 8199 ft 307 kts 139°
2026-05-07 00:21 36.25887 -78.75754 7822 ft 295 kts 139°
2026-05-07 00:21 36.24481 -78.73967 7440 ft 284 kts 139°
2026-05-07 00:21 36.23147 -78.72275 7074 ft 274 kts 139°
2026-05-07 00:21 36.21842 -78.70618 6730 ft 264 kts 140°
2026-05-07 00:22 36.20586 -78.69021 6393 ft 255 kts 140°
2026-05-07 00:22 36.19360 -78.67465 6067 ft 250 kts 140°
2026-05-07 00:22 36.18076 -78.66041 5979 ft 248 kts 143°
2026-05-07 00:22 36.16957 -78.64406 5661 ft 249 kts 132°
2026-05-07 00:23 36.15896 -78.62728 5163 ft 243 kts 144°
2026-05-07 00:23 36.14498 -78.61727 4717 ft 228 kts 167°
2026-05-07 00:23 36.13035 -78.61096 4257 ft 225 kts 169°
2026-05-07 00:23 36.11547 -78.60523 3959 ft 222 kts 170°
2026-05-07 00:24 36.10065 -78.60178 3684 ft 211 kts 187°
2026-05-07 00:24 36.08635 -78.60221 3476 ft 204 kts 189°
2026-05-07 00:24 36.07199 -78.60313 3096 ft 208 kts 189°
2026-05-07 00:24 36.05761 -78.60429 3003 ft 206 kts 191°
2026-05-07 00:25 36.04331 -78.60567 2996 ft 206 kts 193°
2026-05-07 00:25 36.03009 -78.61118 2998 ft 199 kts 216°
2026-05-07 00:25 36.01967 -78.62205 3001 ft 196 kts 227°
2026-05-07 00:25 36.01004 -78.63402 2998 ft 197 kts 228°
2026-05-07 00:26 36.00035 -78.64606 3004 ft 197 kts 228°
2026-05-07 00:26 35.99067 -78.65807 2950 ft 197 kts 227°
2026-05-07 00:26 35.98111 -78.66992 2767 ft 193 kts 227°
2026-05-07 00:26 35.97175 -78.68153 2544 ft 189 kts 227°
2026-05-07 00:27 35.96251 -78.69298 2306 ft 186 kts 227°
2026-05-07 00:27 35.95353 -78.70410 2076 ft 179 kts 227°
2026-05-07 00:27 35.94508 -78.71457 1842 ft 166 kts 226°
2026-05-07 00:27 35.93728 -78.72423 1633 ft 152 kts 226°
2026-05-07 00:28 35.93024 -78.73295 1445 ft 136 kts 226°
2026-05-07 00:28 35.92374 -78.74098 1275 ft 129 kts 225°
2026-05-07 00:28 35.91750 -78.74872 1101 ft 126 kts 225°
2026-05-07 00:28 35.91134 -78.75635 959 ft 126 kts 226°
2026-05-07 00:29 35.90522 -78.76397 793 ft 126 kts 227°
2026-05-07 00:29 35.89905 -78.77157 578 ft 127 kts 226°
2026-05-07 00:30 35.88354 -78.79055 391 ft 44 kts 213°
2026-05-07 00:30 35.88254 -78.79042 391 ft 1 kts 153°
2026-05-07 00:30 35.88251 -78.79041 391 ft 0 kts 162°
2026-05-07 00:32 35.88220 -78.79056 391 ft 18 kts 218°
2026-05-07 00:33 35.88169 -78.79108 392 ft 6 kts 208°
2026-05-07 00:33 35.88130 -78.79102 392 ft 6 kts 161°
2026-05-07 00:33 35.88074 -78.79129 392 ft 13 kts 223°
2026-05-07 00:33 35.88002 -78.79219 392 ft 15 kts 222°
2026-05-07 00:34 35.87923 -78.79313 392 ft 16 kts 225°
2026-05-07 00:34 35.87846 -78.79406 392 ft 10 kts 224°
2026-05-07 00:34 35.87814 -78.79415 392 ft 1 kts 156°
2026-05-07 00:34 35.87805 -78.79409 392 ft 2 kts 147°
2026-05-07 00:35 35.87802 -78.79406 392 ft 1 kts 144°
2026-05-07 00:35 35.87795 -78.79398 392 ft 2 kts 137°
2026-05-07 00:35 35.87787 -78.79389 392 ft 0 kts 136°
2026-05-07 00:35 35.87785 -78.79386 392 ft 1 kts 137°
2026-05-07 00:36 35.87782 -78.79383 392 ft 1 kts 136°
2026-05-07 00:36 35.87779 -78.79380 392 ft 0 kts 136°
2026-05-07 00:36 35.87778 -78.79379 392 ft 0 kts 136°